Location: Saint-Hippolyte
(43.6394°N, 4.7559°E)
Time: 15:59:47
(UTC+00:00)

Cosmos 2058 - Pass Details

Date: 24 October 2020
Orbit: 562 x 584 km, 82.5° (Epoch: 24 November)

Event Time Altitude Azimuth Distance (km) Brightness Sun altitude
Rises 18:52:35 0° 350° (N) 2,765 6.6 -24.1°
Reaches altitude 10° 18:54:46 10° 349° (N) 1,863 5.7 -24.5°
Enters shadow 18:57:51 49° 339° (NNW) 731 3.5 -25.0°
